SCP
-0 -0 -0 0 0 0 0 0 -0 -0 -0 -0 0 0 0 0 0 0 -0 -0 0 0 0 -0 -0 -0 -0 -0 -0 -0 -0 -0 -0 0 0 0 0 0 -0 -0 -0 -0 -0 -0 -0 -0 -0 -0 -0
-0 -0 -0 0 -0 0 0 0 -0 -0 -0 -0 0 0 0 0 -0 0 0 0 0 0 0 0 -0 -0 -0 -0 -0 -0 -0 0 0 0 0 0 0 -0 -0 -0 -0 -0 -0 -0 -0 -0 -0 -0 -0
0 0 0 -0 0 -0 0 0 -0 0 -0 -0 -0 0 -0 0 -0 -0 -0 -0 -0 0 0 0 -0 -0 -0 -0 -0 0 0 0 0 0 0 -0 -0 -0 -0 -0 -0 -0 -0 -0 -0 -0 -0 -0 -0
-0 -0 0 0 0 0 0 0 0 0 0 0 0 0 0 0 -0 0 -0 -0 -0 -0 -0 -0 -0 -0 -0 0 0 0 0 0 0 0 -0 -0 -0 -0 -0 -0 -0 -0 -0 -0 -0 -0 -0 -0 -0
-0 0 0 0 0 0 0 0 0 0 0 0 0 0 0 0 -0 -0 -0 -0 -0 -0 -0 0 -0 0 0 0 0 0 0 0 0 -0 -0 -0 -0 -0 -0 -0 -0 -0 -0 -0 -0 -0 -0 -0 -0
0 0 0 0 0 0 0 0 0 0 0 0 0 0 0 0 -0 -0 -0 -0 -0 -0 0 -0 0 0 0 0 0 0 0 0 0 -0 -0 -0 -0 -0 -0 -0 -0 -0 -0 -0 0 0 -0 0 0
-0 0 0 0 0 -0 -0 0 0 0 0 0 -0 0 0 0 -0 -0 -0 -0 -0 0 -0 -0 -0 0 0 0 0 0 0 0 0 -0 -0 -0 -0 -0 -0 -0 -0 -0 -0 -0 0 0 0 0 0
0 -0 0 0 -0 0 -0 0 0 0 -0 0 0 0 0 0 -0 -0 -0 0 0 0 -0 -0 -0 -0 -0 -0 0 0 0 0 0 -0 -0 -0 -0 -0 -0 -0 -0 -0 -0 0 0 0 0 0 0
0 -0 0 0 0 -0 -0 0 0 -0 0 0 0 0 0 -0 -0 -0 -0 0 -0 -0 -0 -0 -0 -0 -0 -0 -0 0 0 -0 -0 -0 -0 -0 -0 -0 -0 -0 -0 -0 0 0 0 0 0 0 0
0 -0 -0 0 0 0 -0 -0 -0 0 0 -0 0 0 -0 -0 -0 -0 -0 0 -0 0 0 -0 -0 -0 -0 -0 -0 -0 -0 -0 -0 -0 -0 -0 -0 -0 -0 -0 -0 0 0 0 0 0 0 0 0
-0 -0 -0 0 0 -0 -0 -0 0 -0 0 0 0 -0 -0 -0 -0 -0 -0 -0 0 0 0 0 0 0 0 0 0 -0 -0 0 -0 0 -0 -0 -0 -0 -0 -0 0 0 0 0 0 0 0 0 0
-0 -0 0 0 0 0 0 0 0 -0 -0 0 -0 -0 -0 -0 -0 -0 -0 0 0 0 0 0 0 0 0 0 0 0 0 -0 -0 -0 -0 -0 -0 -0 0 0 0 0 0 0 0 0 0 0 0
-0 -0 -0 -0 0 0 -0 0 0 -0 0 0 -0 -0 -0 -0 -0 -0 -0 0 0 0 0 0 0 0 0 0 -0 -0 -0 -0 -0 -0 -0 -0 -0 0 0 0 0 0 0 0 0 0 0 0 0
0 -0 0 -0 -0 -0 0 -0 0 -0 -0 -0 -0 -0 -0 -0 -0 0 0 -0 0 0 0 0 0 0 0 0 0 -0 -0 -0 -0 -0 -0 -0 0 0 0 0 0 0 0 0 0 0 0 0 0
0 0 0 0 0 0 0 0 0 0 -0 -0 -0 -0 -0 -0 -0 0 0 0 -0 0 0 -0 0 0 0 0 0 -0 -0 -0 -0 -0 0 0 0 0 0 0 0 0 0 0 0 0 0 0 0
0 0 0 0 0 0 0 0 0 0 -0 -0 0 -0 -0 -0 0 0 0 0 -0 -0 -0 0 0 0 0 0 -0 -0 -0 -0 -0 0 0 0 0 0 0 0 0 0 0 0 0 0 0 0 0
0 0 0 0 0 0 0 0 0 0 0 -0 -0 -0 -0 -0 -0 0 0 0 -0 -0 -0 -0 0 -0 0 -0 -0 -0 -0 0 0 0 0 0 0 0 0 0 0 0 0 0 0 0 0 0 0
0 0 0 0 0 0 0 0 0 0 0 -0 -0 -0 -0 -0 -0 -0 0 0 -0 -0 -0 -0 -0 -0 0 0 0 -0 -0 0 0 0 0 0 0 0 0 0 0 0 0 0 0 0 0 0 0
0 0 0 0 0 0 0 0 -0 0 0 0 -0 -0 -0 -0 -0 -0 -0 0 0 0 -0 -0 -0 -0 0 0 0 0 0 0 0 0 0 0 0 0 0 0 0 0 0 0 0 0 0 0 0
0 0 0 0 0 -0 0 0 0 0 0 0 0 0 -0 -0 0 0 -0 0 -0 -0 -0 -0 -0 -0 -0 -0 0 0 0 0 0 0 0 0 0 0 0 0 0 0 0 0 0 0 0 0 0
0 0 0 0 0 0 0 0 0 0 0 0 0 0 0 -0 0 0 -0 -0 -0 -0 -0 -0 -0 -0 -0 -0 0 0 0 0 0 0 0 0 0 0 0 0 0 0 0 0 0 0 0 0 0
0 0 0 0 0 0 0 0 0 0 0 0 0 0 0 0 0 0 -0 -0 -0 -0 -0 -0 -0 -0 -0 -0 0 0 0 0 0 0 0 0 0 0 0 0 0 0 0 0 0 0 0 0 0
0 0 0 0 0 0 0 0 0 0 0 0 0 0 0 0 0 0 0 -0 -0 0 0 -0 0 -0 -0 -0 0 0 -0 1 0 0 0 0 0 0 0 0 0 0 0 0 0 0 0 0 0
0 0 0 0 0 0 0 0 0 -0 -0 0 0 0 0 0 0 0 0 0 0 0 0 -0 -0 -0 -0 0 0 0 0 0 0 0 0 0 0 0 0 0 0 0 0 0 0 0 0 0 0
0 0 0 0 0 0 0 0 0 0 0 0 0 0 0 0 0 0 0 0 0 0 0 0 -0 -0 0 0 0 1 1 0 0 0 0 0 0 0 0 0 0 0 0 0 0 0 0 0 0
0 0 0 0 0 0 0 0 0 0 0 0 0 0 0 0 -0 0 0 0 0 0 0 0 0 -0 0 0 1 1 1 0 0 0 0 0 0 0 0 0 0 0 0 0 0 0 0 0 0
0 0 0 0 0 0 0 0 0 0 -0 0 0 0 0 0 0 0 0 0 0 0 0 0 0 0 0 1 2 2 0 0 0 0 0 0 0 0 0 0 0 0 0 0 0 0 0 0 0
0 0 0 0 0 0 0 0 0 0 0 0 0 0 0 0 0 0 0 0 0 0 0 0 0 0 1 1 2 1 1 0 0 0 0 0 0 0 0 0 0 0 0 0 0 0 0 0 0
0 0 0 0 0 0 0 0 0 0 0 0 0 0 0 0 0 0 0 -0 -0 0 0 0 1 1 1 1 2 1 0 0 0 0 0 0 0 0 0 0 0 0 0 0 0 0 0 0 0
0 0 0 0 0 0 0 0 0 0 0 0 0 0 0 0 0 0 0 0 -0 -0 0 0 1 1 1 1 1 1 0 0 0 0 0 0 0 0 0 0 0 0 0 0 0 0 0 0 0
Wind_Speed_500mb
9 9 4 2 7 9 2 6 6 9 7 6 19 9 12 7 4 6 17 47 42 43 38 33 28 24 22 22 23 25 28 29 28 28 30 32 33 32 29 24 19 14 13 13 12 9 5 3 2
8 8 3 3 9 7 9 4 4 3 17 17 17 10 10 4 2 14 42 45 42 38 35 30 26 22 21 21 23 28 31 32 31 32 33 33 31 28 23 19 18 16 15 13 12 10 8 6 3
11 4 4 7 6 7 6 3 10 13 7 9 7 12 4 2 11 44 33 39 42 36 31 26 22 20 20 23 26 30 33 34 35 36 35 33 31 28 24 21 20 20 20 20 20 20 17 11 6
11 5 6 7 1 6 6 7 12 17 8 13 20 10 6 4 38 26 37 36 44 34 27 22 19 21 23 26 30 34 36 37 38 38 36 33 30 28 26 24 22 20 19 20 20 20 19 13 7
5 3 6 5 7 5 8 6 17 5 11 11 8 6 16 14 18 29 32 39 39 31 24 21 22 26 28 33 37 39 40 41 40 38 37 35 33 30 27 24 21 19 18 18 17 15 12 8 7
2 5 7 2 7 6 11 7 9 9 8 17 18 14 13 12 24 37 41 40 33 25 28 29 32 35 38 40 42 43 44 44 43 42 40 37 33 30 26 24 20 18 18 15 13 10 7 6 8
8 7 5 4 6 7 5 10 11 14 17 11 30 9 11 24 30 39 39 36 32 31 34 37 40 42 43 44 45 48 48 47 46 43 38 35 31 28 26 24 20 17 15 12 10 6 2 4 7
5 9 4 6 5 4 7 3 20 21 9 33 21 13 13 43 43 41 39 36 36 36 38 41 44 45 46 47 48 49 48 46 45 42 39 35 32 28 25 20 15 13 11 9 5 5 5 7 10
6 8 2 8 7 3 15 8 18 5 31 17 18 14 33 55 50 46 41 42 40 40 41 43 45 47 48 49 50 49 47 45 43 39 36 31 27 24 21 16 13 11 9 7 11 11 9 12 16
7 8 12 11 10 6 14 22 27 4 22 9 17 23 51 58 54 48 43 45 44 45 46 46 48 49 50 49 49 49 47 44 40 35 32 27 22 17 13 10 8 8 8 11 14 13 10 13 15
5 8 9 20 27 15 15 19 33 24 10 25 34 49 68 62 61 48 41 40 43 45 48 50 50 50 50 49 48 48 43 40 38 34 30 24 19 16 14 8 7 1 5 12 11 7 5 9 13
3 24 23 25 46 25 14 23 16 39 22 26 33 51 66 65 62 54 44 46 51 51 49 51 53 52 49 47 44 44 42 38 34 30 25 21 16 13 12 5 4 3 5 12 9 4 3 4 7
10 12 22 50 44 39 31 17 15 42 41 21 42 65 65 64 60 53 40 43 49 53 54 55 54 53 51 48 46 46 43 35 31 28 25 21 16 12 7 8 7 7 11 10 7 4 3 3 1
12 18 37 27 17 12 15 9 15 20 41 20 49 68 69 68 63 60 60 54 58 55 56 56 56 55 54 51 48 46 43 38 34 27 25 20 16 13 10 12 13 11 11 8 6 4 4 6 3
7 10 17 4 7 6 19 4 25 19 46 43 59 69 69 70 67 70 65 61 54 59 56 61 58 58 57 54 50 47 42 41 38 31 25 23 18 17 13 17 17 11 11 10 6 4 2 8 10
4 7 6 5 8 3 7 18 19 27 54 60 64 73 74 74 75 67 70 61 58 59 63 59 59 60 58 60 55 49 45 42 39 36 29 24 24 18 21 21 19 12 13 14 6 3 1 4 12
13 4 2 16 3 7 3 14 27 39 57 58 73 74 78 76 77 76 75 71 63 64 63 64 66 64 59 59 55 52 47 47 44 43 39 33 27 24 25 22 20 14 17 16 11 7 7 8 16
5 7 7 7 10 6 12 21 8 42 65 72 80 79 76 80 88 83 81 80 74 68 68 67 67 66 66 65 63 59 53 52 50 49 47 40 35 30 27 26 22 18 21 20 18 14 8 8 13
3 5 8 12 12 7 12 13 23 30 35 30 55 64 79 91 85 83 85 85 87 84 79 78 78 75 76 76 76 71 65 58 55 55 52 46 43 39 30 26 25 25 27 24 22 17 8 9 14
10 7 14 15 7 11 8 15 18 21 42 65 53 62 87 96 77 85 91 94 99 94 92 88 85 83 82 81 80 80 74 67 62 59 58 56 53 46 36 29 31 31 32 29 26 20 14 15 19
8 9 12 16 10 2 4 15 10 6 20 36 46 64 63 83 94 93 94 97 101 106 103 99 97 94 92 88 87 87 78 75 74 74 66 63 55 49 39 31 33 34 35 32 30 24 19 19 25
7 11 14 11 7 6 6 9 12 10 10 17 47 58 78 95 86 100 98 102 105 111 108 105 104 102 101 100 100 96 91 88 87 84 74 67 59 50 42 36 35 36 38 38 34 28 23 21 19
19 3 4 1 6 7 9 6 14 7 11 18 41 69 88 100 98 98 105 110 109 111 114 116 113 113 112 109 109 106 98 95 88 89 80 72 61 52 43 35 33 41 42 42 38 33 26 22 19
2 6 13 10 7 4 9 8 11 7 16 9 22 56 70 84 98 114 120 120 118 115 120 123 120 125 124 123 119 117 108 106 101 95 88 81 71 57 46 30 35 46 49 47 43 37 31 25 19
10 12 7 8 7 11 4 7 17 17 19 15 22 35 41 40 59 79 94 109 119 124 127 132 131 129 130 131 127 125 118 114 110 99 91 88 77 64 30 36 46 51 54 50 46 40 34 29 23
3 12 10 11 7 13 7 10 14 19 24 24 38 39 40 31 31 53 76 90 100 113 122 133 143 139 132 128 132 129 126 120 113 100 90 91 82 65 23 41 56 56 61 55 49 43 38 33 26
6 7 8 10 5 5 6 13 19 12 18 20 28 61 65 66 64 50 40 48 76 94 110 121 133 131 123 123 129 132 130 122 117 98 81 88 84 73 57 61 58 64 68 60 54 48 42 35 29
11 10 1 3 4 8 9 7 10 12 17 18 29 49 70 68 69 64 60 59 40 60 88 105 117 124 120 118 123 131 133 121 114 94 77 81 85 77 45 61 63 67 72 64 58 51 46 38 33
7 5 8 9 9 11 6 11 13 1 6 15 22 41 57 64 67 61 60 54 54 52 63 81 96 109 114 112 116 125 132 119 112 91 71 74 79 78 59 64 62 72 76 68 62 58 50 45 37
3 3 6 8 10 4 6 12 5 14 10 22 31 46 55 63 70 66 57 50 44 50 63 74 77 89 97 104 110 119 119 113 109 89 69 70 72 74 56 67 68 75 79 72 67 63 56 49 43
Wind_Direction_500mb
125 140 122 53 48 68 341 323 315 354 23 12 149 175 170 98 183 215 147 161 168 168 164 165 167 172 179 180 170 161 155 149 143 138 135 131 130 130 127 123 114 99 89 90 98 103 109 127 145
149 137 74 85 83 56 290 262 23 184 111 67 77 69 60 101 12 145 148 158 170 171 167 167 168 173 177 173 162 155 151 146 140 137 134 132 129 125 119 110 100 90 83 83 91 107 125 152 185
158 96 359 90 115 153 195 216 118 126 98 110 112 67 64 208 146 144 157 161 170 175 169 170 170 172 170 163 154 148 144 139 137 134 131 126 122 117 111 101 92 87 86 87 88 91 98 110 118
152 161 63 78 13 237 215 193 168 156 112 98 113 64 46 337 142 151 157 167 170 176 174 169 166 162 160 151 144 141 138 136 135 132 129 124 116 108 103 99 95 91 90 89 88 87 89 95 103
147 98 51 48 283 257 251 224 204 150 120 116 140 125 126 124 155 159 169 171 174 175 168 159 153 152 150 144 142 139 137 135 134 131 124 118 114 111 107 103 101 100 98 94 94 93 95 78 40
92 68 59 338 271 274 291 240 166 115 131 119 110 108 157 164 175 164 163 166 171 170 156 152 150 149 147 144 141 137 134 132 130 127 124 121 117 114 110 108 107 99 99 102 103 113 107 62 35
112 85 191 196 268 288 228 143 163 154 138 151 134 122 168 181 171 167 166 166 166 164 155 152 151 149 146 143 139 135 133 132 131 128 124 121 118 113 110 110 107 100 100 108 104 99 65 356 1
128 96 132 256 234 288 153 85 174 158 167 147 170 171 187 173 167 167 170 169 166 163 157 155 153 151 148 145 141 138 138 136 135 130 124 124 122 117 114 118 115 102 104 120 99 38 353 346 357
141 56 253 217 188 230 154 122 166 197 146 146 188 213 168 169 166 166 172 174 170 166 161 160 157 154 152 150 147 146 144 142 141 140 137 136 131 127 127 126 113 100 91 48 11 12 22 19 35
107 117 233 201 199 188 175 151 176 150 164 178 185 187 171 172 170 170 173 174 173 169 165 163 162 160 159 157 155 153 151 151 152 153 150 151 155 162 158 149 114 93 57 20 6 15 18 20 36
161 201 223 273 251 225 175 167 167 149 249 217 181 166 173 177 175 177 179 176 170 168 170 169 168 167 166 164 163 161 159 160 163 163 164 167 175 188 195 183 167 146 14 354 356 1 4 20 40
180 251 233 270 274 281 183 163 186 174 201 239 216 183 176 181 183 181 185 184 177 177 175 175 174 174 172 172 172 169 167 166 171 176 180 182 181 191 187 219 203 270 318 332 328 324 339 13 28
204 266 268 266 272 268 257 183 185 213 222 283 201 186 185 185 189 187 183 180 183 185 183 182 181 179 179 178 178 180 176 173 174 185 189 186 190 199 224 242 259 302 314 316 298 302 269 268 335
208 263 274 288 290 244 178 166 163 223 210 220 193 191 193 192 194 192 194 186 191 188 189 187 187 184 184 182 183 185 185 185 185 192 197 200 206 213 252 281 285 289 300 270 246 256 281 250 213
265 297 305 246 173 133 135 83 232 196 195 197 194 199 197 197 199 203 197 194 193 194 190 194 190 190 188 186 185 185 187 191 198 205 207 215 222 236 259 280 278 274 263 234 237 252 251 225 209
44 65 340 326 150 194 133 237 245 187 190 192 195 205 204 203 205 208 206 203 203 198 195 195 193 193 192 193 194 195 197 200 204 208 214 220 227 243 257 274 268 258 222 220 230 260 273 221 214
6 247 249 323 215 120 150 249 256 205 198 199 199 204 211 210 211 214 213 210 208 211 205 202 199 202 200 199 200 203 206 209 213 219 223 229 234 248 251 272 261 238 205 212 213 201 211 217 208
264 346 319 264 295 47 207 253 247 201 188 200 204 205 209 216 217 215 216 217 214 214 215 213 210 210 210 208 207 208 211 217 220 223 229 232 240 241 256 265 241 228 211 209 204 195 203 225 206
250 229 256 256 246 227 237 252 274 211 212 217 207 207 214 219 220 221 220 222 224 221 218 220 218 218 215 214 213 212 215 219 222 221 227 230 236 238 253 249 239 226 215 209 201 196 208 174 159
225 265 275 280 264 174 142 250 258 179 214 210 205 206 215 225 225 225 225 225 227 227 225 223 224 223 224 222 221 219 217 220 227 230 232 232 230 236 242 245 229 224 216 207 201 198 195 182 174
226 207 253 225 337 257 26 318 314 265 238 222 226 224 229 227 227 229 226 228 231 230 229 228 228 228 229 229 227 224 222 222 223 224 230 229 234 238 240 238 223 220 212 213 207 201 195 198 199
290 203 247 277 79 220 68 267 300 280 247 214 230 229 235 237 234 236 234 233 232 234 232 232 233 232 233 231 233 229 226 223 227 231 229 228 233 241 236 230 219 224 216 212 213 206 201 196 203
235 158 300 216 113 44 319 69 264 306 265 245 238 235 241 245 244 241 242 240 239 237 238 233 233 235 235 234 234 234 231 232 233 234 232 228 231 234 232 228 223 228 219 213 213 211 206 202 205
298 89 42 53 79 53 260 136 291 216 229 247 256 249 253 256 251 249 250 249 244 242 242 241 235 235 236 234 233 234 232 233 231 232 228 229 228 229 232 256 228 233 223 216 214 210 208 206 206
78 57 338 341 3 219 169 92 234 269 264 226 260 275 281 282 264 255 252 250 249 243 243 241 240 235 235 234 233 232 232 234 237 237 233 226 228 223 226 228 224 227 223 219 215 212 208 207 205
153 150 162 228 229 260 88 238 247 230 285 281 285 285 302 309 312 261 256 257 252 248 247 243 240 238 234 233 232 232 231 234 237 238 236 233 232 228 232 258 234 227 222 221 217 213 209 208 207
226 202 191 118 25 67 247 297 306 301 285 315 323 359 354 353 347 327 314 278 256 251 247 245 243 240 236 234 231 232 231 233 237 236 238 235 232 236 238 228 220 217 220 222 219 215 213 210 210
171 161 97 3 230 255 288 278 235 287 343 337 5 1 358 358 348 341 332 321 298 259 252 247 242 243 238 235 234 234 233 231 238 235 242 234 234 235 230 212 217 214 218 220 219 215 212 212 211
340 278 43 124 146 180 207 256 215 19 351 8 358 6 5 3 2 350 334 326 312 277 259 253 247 242 240 238 237 236 234 230 235 232 239 234 233 232 220 214 215 212 217 219 219 217 216 213 212
205 314 127 129 274 219 167 263 144 95 63 23 21 9 10 12 10 9 354 331 321 304 276 260 248 244 243 243 239 237 236 230 232 231 234 229 233 232 229 222 218 215 217 218 218 217 216 216 213
Wind_Speed_850mb
9 9 4 2 7 9 2 6 6 9 7 6 19 9 12 7 4 6 17 47 42 43 38 33 28 24 22 22 23 25 28 29 28 28 30 32 33 32 29 24 19 14 13 13 12 9 5 3 2
8 8 3 3 9 7 9 4 4 3 17 17 17 10 10 4 2 14 42 45 42 38 35 30 26 22 21 21 23 28 31 32 31 32 33 33 31 28 23 19 18 16 15 13 12 10 8 6 3
11 4 4 7 6 7 6 3 10 13 7 9 7 12 4 2 11 44 33 39 42 36 31 26 22 20 20 23 26 30 33 34 35 36 35 33 31 28 24 21 20 20 20 20 20 20 17 11 6
11 5 6 7 1 6 6 7 12 17 8 13 20 10 6 4 38 26 37 36 44 34 27 22 19 21 23 26 30 34 36 37 38 38 36 33 30 28 26 24 22 20 19 20 20 20 19 13 7
5 3 6 5 7 5 8 6 17 5 11 11 8 6 16 14 18 29 32 39 39 31 24 21 22 26 28 33 37 39 40 41 40 38 37 35 33 30 27 24 21 19 18 18 17 15 12 8 7
2 5 7 2 7 6 11 7 9 9 8 17 18 14 13 12 24 37 41 40 33 25 28 29 32 35 38 40 42 43 44 44 43 42 40 37 33 30 26 24 20 18 18 15 13 10 7 6 8
8 7 5 4 6 7 5 10 11 14 17 11 30 9 11 24 30 39 39 36 32 31 34 37 40 42 43 44 45 48 48 47 46 43 38 35 31 28 26 24 20 17 15 12 10 6 2 4 7
5 9 4 6 5 4 7 3 20 21 9 33 21 13 13 43 43 41 39 36 36 36 38 41 44 45 46 47 48 49 48 46 45 42 39 35 32 28 25 20 15 13 11 9 5 5 5 7 10
6 8 2 8 7 3 15 8 18 5 31 17 18 14 33 55 50 46 41 42 40 40 41 43 45 47 48 49 50 49 47 45 43 39 36 31 27 24 21 16 13 11 9 7 11 11 9 12 16
7 8 12 11 10 6 14 22 27 4 22 9 17 23 51 58 54 48 43 45 44 45 46 46 48 49 50 49 49 49 47 44 40 35 32 27 22 17 13 10 8 8 8 11 14 13 10 13 15
5 8 9 20 27 15 15 19 33 24 10 25 34 49 68 62 61 48 41 40 43 45 48 50 50 50 50 49 48 48 43 40 38 34 30 24 19 16 14 8 7 1 5 12 11 7 5 9 13
3 24 23 25 46 25 14 23 16 39 22 26 33 51 66 65 62 54 44 46 51 51 49 51 53 52 49 47 44 44 42 38 34 30 25 21 16 13 12 5 4 3 5 12 9 4 3 4 7
10 12 22 50 44 39 31 17 15 42 41 21 42 65 65 64 60 53 40 43 49 53 54 55 54 53 51 48 46 46 43 35 31 28 25 21 16 12 7 8 7 7 11 10 7 4 3 3 1
12 18 37 27 17 12 15 9 15 20 41 20 49 68 69 68 63 60 60 54 58 55 56 56 56 55 54 51 48 46 43 38 34 27 25 20 16 13 10 12 13 11 11 8 6 4 4 6 3
7 10 17 4 7 6 19 4 25 19 46 43 59 69 69 70 67 70 65 61 54 59 56 61 58 58 57 54 50 47 42 41 38 31 25 23 18 17 13 17 17 11 11 10 6 4 2 8 10
4 7 6 5 8 3 7 18 19 27 54 60 64 73 74 74 75 67 70 61 58 59 63 59 59 60 58 60 55 49 45 42 39 36 29 24 24 18 21 21 19 12 13 14 6 3 1 4 12
13 4 2 16 3 7 3 14 27 39 57 58 73 74 78 76 77 76 75 71 63 64 63 64 66 64 59 59 55 52 47 47 44 43 39 33 27 24 25 22 20 14 17 16 11 7 7 8 16
5 7 7 7 10 6 12 21 8 42 65 72 80 79 76 80 88 83 81 80 74 68 68 67 67 66 66 65 63 59 53 52 50 49 47 40 35 30 27 26 22 18 21 20 18 14 8 8 13
3 5 8 12 12 7 12 13 23 30 35 30 55 64 79 91 85 83 85 85 87 84 79 78 78 75 76 76 76 71 65 58 55 55 52 46 43 39 30 26 25 25 27 24 22 17 8 9 14
10 7 14 15 7 11 8 15 18 21 42 65 53 62 87 96 77 85 91 94 99 94 92 88 85 83 82 81 80 80 74 67 62 59 58 56 53 46 36 29 31 31 32 29 26 20 14 15 19
8 9 12 16 10 2 4 15 10 6 20 36 46 64 63 83 94 93 94 97 101 106 103 99 97 94 92 88 87 87 78 75 74 74 66 63 55 49 39 31 33 34 35 32 30 24 19 19 25
7 11 14 11 7 6 6 9 12 10 10 17 47 58 78 95 86 100 98 102 105 111 108 105 104 102 101 100 100 96 91 88 87 84 74 67 59 50 42 36 35 36 38 38 34 28 23 21 19
19 3 4 1 6 7 9 6 14 7 11 18 41 69 88 100 98 98 105 110 109 111 114 116 113 113 112 109 109 106 98 95 88 89 80 72 61 52 43 35 33 41 42 42 38 33 26 22 19
2 6 13 10 7 4 9 8 11 7 16 9 22 56 70 84 98 114 120 120 118 115 120 123 120 125 124 123 119 117 108 106 101 95 88 81 71 57 46 30 35 46 49 47 43 37 31 25 19
10 12 7 8 7 11 4 7 17 17 19 15 22 35 41 40 59 79 94 109 119 124 127 132 131 129 130 131 127 125 118 114 110 99 91 88 77 64 30 36 46 51 54 50 46 40 34 29 23
3 12 10 11 7 13 7 10 14 19 24 24 38 39 40 31 31 53 76 90 100 113 122 133 143 139 132 128 132 129 126 120 113 100 90 91 82 65 23 41 56 56 61 55 49 43 38 33 26
6 7 8 10 5 5 6 13 19 12 18 20 28 61 65 66 64 50 40 48 76 94 110 121 133 131 123 123 129 132 130 122 117 98 81 88 84 73 57 61 58 64 68 60 54 48 42 35 29
11 10 1 3 4 8 9 7 10 12 17 18 29 49 70 68 69 64 60 59 40 60 88 105 117 124 120 118 123 131 133 121 114 94 77 81 85 77 45 61 63 67 72 64 58 51 46 38 33
7 5 8 9 9 11 6 11 13 1 6 15 22 41 57 64 67 61 60 54 54 52 63 81 96 109 114 112 116 125 132 119 112 91 71 74 79 78 59 64 62 72 76 68 62 58 50 45 37
3 3 6 8 10 4 6 12 5 14 10 22 31 46 55 63 70 66 57 50 44 50 63 74 77 89 97 104 110 119 119 113 109 89 69 70 72 74 56 67 68 75 79 72 67 63 56 49 43
Wind_Direction_850mb
125 140 122 53 48 68 341 323 315 354 23 12 149 175 170 98 183 215 147 161 168 168 164 165 167 172 179 180 170 161 155 149 143 138 135 131 130 130 127 123 114 99 89 90 98 103 109 127 145
149 137 74 85 83 56 290 262 23 184 111 67 77 69 60 101 12 145 148 158 170 171 167 167 168 173 177 173 162 155 151 146 140 137 134 132 129 125 119 110 100 90 83 83 91 107 125 152 185
158 96 359 90 115 153 195 216 118 126 98 110 112 67 64 208 146 144 157 161 170 175 169 170 170 172 170 163 154 148 144 139 137 134 131 126 122 117 111 101 92 87 86 87 88 91 98 110 118
152 161 63 78 13 237 215 193 168 156 112 98 113 64 46 337 142 151 157 167 170 176 174 169 166 162 160 151 144 141 138 136 135 132 129 124 116 108 103 99 95 91 90 89 88 87 89 95 103
147 98 51 48 283 257 251 224 204 150 120 116 140 125 126 124 155 159 169 171 174 175 168 159 153 152 150 144 142 139 137 135 134 131 124 118 114 111 107 103 101 100 98 94 94 93 95 78 40
92 68 59 338 271 274 291 240 166 115 131 119 110 108 157 164 175 164 163 166 171 170 156 152 150 149 147 144 141 137 134 132 130 127 124 121 117 114 110 108 107 99 99 102 103 113 107 62 35
112 85 191 196 268 288 228 143 163 154 138 151 134 122 168 181 171 167 166 166 166 164 155 152 151 149 146 143 139 135 133 132 131 128 124 121 118 113 110 110 107 100 100 108 104 99 65 356 1
128 96 132 256 234 288 153 85 174 158 167 147 170 171 187 173 167 167 170 169 166 163 157 155 153 151 148 145 141 138 138 136 135 130 124 124 122 117 114 118 115 102 104 120 99 38 353 346 357
141 56 253 217 188 230 154 122 166 197 146 146 188 213 168 169 166 166 172 174 170 166 161 160 157 154 152 150 147 146 144 142 141 140 137 136 131 127 127 126 113 100 91 48 11 12 22 19 35
107 117 233 201 199 188 175 151 176 150 164 178 185 187 171 172 170 170 173 174 173 169 165 163 162 160 159 157 155 153 151 151 152 153 150 151 155 162 158 149 114 93 57 20 6 15 18 20 36
161 201 223 273 251 225 175 167 167 149 249 217 181 166 173 177 175 177 179 176 170 168 170 169 168 167 166 164 163 161 159 160 163 163 164 167 175 188 195 183 167 146 14 354 356 1 4 20 40
180 251 233 270 274 281 183 163 186 174 201 239 216 183 176 181 183 181 185 184 177 177 175 175 174 174 172 172 172 169 167 166 171 176 180 182 181 191 187 219 203 270 318 332 328 324 339 13 28
204 266 268 266 272 268 257 183 185 213 222 283 201 186 185 185 189 187 183 180 183 185 183 182 181 179 179 178 178 180 176 173 174 185 189 186 190 199 224 242 259 302 314 316 298 302 269 268 335
208 263 274 288 290 244 178 166 163 223 210 220 193 191 193 192 194 192 194 186 191 188 189 187 187 184 184 182 183 185 185 185 185 192 197 200 206 213 252 281 285 289 300 270 246 256 281 250 213
265 297 305 246 173 133 135 83 232 196 195 197 194 199 197 197 199 203 197 194 193 194 190 194 190 190 188 186 185 185 187 191 198 205 207 215 222 236 259 280 278 274 263 234 237 252 251 225 209
44 65 340 326 150 194 133 237 245 187 190 192 195 205 204 203 205 208 206 203 203 198 195 195 193 193 192 193 194 195 197 200 204 208 214 220 227 243 257 274 268 258 222 220 230 260 273 221 214
6 247 249 323 215 120 150 249 256 205 198 199 199 204 211 210 211 214 213 210 208 211 205 202 199 202 200 199 200 203 206 209 213 219 223 229 234 248 251 272 261 238 205 212 213 201 211 217 208
264 346 319 264 295 47 207 253 247 201 188 200 204 205 209 216 217 215 216 217 214 214 215 213 210 210 210 208 207 208 211 217 220 223 229 232 240 241 256 265 241 228 211 209 204 195 203 225 206
250 229 256 256 246 227 237 252 274 211 212 217 207 207 214 219 220 221 220 222 224 221 218 220 218 218 215 214 213 212 215 219 222 221 227 230 236 238 253 249 239 226 215 209 201 196 208 174 159
225 265 275 280 264 174 142 250 258 179 214 210 205 206 215 225 225 225 225 225 227 227 225 223 224 223 224 222 221 219 217 220 227 230 232 232 230 236 242 245 229 224 216 207 201 198 195 182 174
226 207 253 225 337 257 26 318 314 265 238 222 226 224 229 227 227 229 226 228 231 230 229 228 228 228 229 229 227 224 222 222 223 224 230 229 234 238 240 238 223 220 212 213 207 201 195 198 199
290 203 247 277 79 220 68 267 300 280 247 214 230 229 235 237 234 236 234 233 232 234 232 232 233 232 233 231 233 229 226 223 227 231 229 228 233 241 236 230 219 224 216 212 213 206 201 196 203
235 158 300 216 113 44 319 69 264 306 265 245 238 235 241 245 244 241 242 240 239 237 238 233 233 235 235 234 234 234 231 232 233 234 232 228 231 234 232 228 223 228 219 213 213 211 206 202 205
298 89 42 53 79 53 260 136 291 216 229 247 256 249 253 256 251 249 250 249 244 242 242 241 235 235 236 234 233 234 232 233 231 232 228 229 228 229 232 256 228 233 223 216 214 210 208 206 206
78 57 338 341 3 219 169 92 234 269 264 226 260 275 281 282 264 255 252 250 249 243 243 241 240 235 235 234 233 232 232 234 237 237 233 226 228 223 226 228 224 227 223 219 215 212 208 207 205
153 150 162 228 229 260 88 238 247 230 285 281 285 285 302 309 312 261 256 257 252 248 247 243 240 238 234 233 232 232 231 234 237 238 236 233 232 228 232 258 234 227 222 221 217 213 209 208 207
226 202 191 118 25 67 247 297 306 301 285 315 323 359 354 353 347 327 314 278 256 251 247 245 243 240 236 234 231 232 231 233 237 236 238 235 232 236 238 228 220 217 220 222 219 215 213 210 210
171 161 97 3 230 255 288 278 235 287 343 337 5 1 358 358 348 341 332 321 298 259 252 247 242 243 238 235 234 234 233 231 238 235 242 234 234 235 230 212 217 214 218 220 219 215 212 212 211
340 278 43 124 146 180 207 256 215 19 351 8 358 6 5 3 2 350 334 326 312 277 259 253 247 242 240 238 237 236 234 230 235 232 239 234 233 232 220 214 215 212 217 219 219 217 216 213 212
205 314 127 129 274 219 167 263 144 95 63 23 21 9 10 12 10 9 354 331 321 304 276 260 248 244 243 243 239 237 236 230 232 231 234 229 233 232 229 222 218 215 217 218 218 217 216 216 213